Dewpoint
69 69 68 67 68 69 68 69 68 70 72 71 72 71 71 70 70 70 71 70 70 69
71 69 69 69 68 69 69 69 70 70 71 71 72 72 71 69 70 71 71 71 70 67
70 71 70 70 70 69 69 69 70 70 70 71 72 72 72 70 70 70 70 71 70 70
72 71 71 71 71 70 70 69 68 70 71 70 71 71 71 72 70 70 70 70 70 70
72 73 72 71 71 71 69 70 69 70 70 71 70 70 70 70 70 71 70 69 69 69
73 73 72 72 71 72 71 69 70 70 70 70 70 70 71 71 70 70 70 70 70 70
72 73 73 73 73 72 71 70 70 71 70 70 70 70 70 71 70 70 70 70 70 70
70 72 73 73 73 73 72 71 70 70 71 70 69 69 69 70 71 70 70 71 70 70
72 72 72 73 73 73 72 72 71 71 71 70 69 67 68 69 70 70 70 70 71 71
69 68 68 72 72 72 72 72 72 71 71 71 70 66 66 68 70 70 70 69 70 70
67 66 65 65 66 69 72 71 70 71 71 71 71 66 65 67 70 70 70 70 70 69
67 66 66 65 64 65 67 68 68 68 66 66 66 62 63 65 69 69 69 70 70 69
66 66 66 65 63 62 64 66 68 68 68 64 65 63 62 64 69 68 66 67 69 66
64 65 66 64 61 60 60 63 64 66 68 65 64 64 61 60 67 69 69 67 69 70
Lifted_Index
-4 -4 -4 -3 -3 -3 -3 -3 -3 -3 -3 -4 -4 -4 -4 -4 -4 -4 -5 -5 -4 -4
-5 -5 -4 -4 -4 -3 -3 -3 -3 -3 -3 -3 -4 -4 -4 -4 -4 -4 -4 -4 -4 -4
-5 -5 -5 -5 -4 -4 -3 -3 -3 -3 -3 -3 -3 -4 -4 -4 -4 -4 -4 -4 -4 -3
-6 -6 -6 -6 -5 -5 -4 -4 -3 -3 -3 -3 -3 -3 -4 -4 -4 -4 -4 -4 -4 -4
-7 -7 -7 -7 -6 -6 -5 -5 -4 -4 -3 -3 -3 -3 -3 -4 -4 -4 -4 -4 -4 -3
-8 -8 -8 -8 -7 -7 -6 -6 -5 -4 -4 -4 -4 -4 -3 -3 -3 -4 -4 -4 -3 -3
-7 -8 -8 -8 -8 -7 -7 -6 -5 -5 -4 -4 -4 -4 -4 -3 -3 -3 -3 -3 -3 -3
-7 -7 -8 -8 -8 -8 -7 -7 -6 -5 -5 -4 -4 -4 -4 -3 -3 -3 -3 -3 -3 -3
-6 -7 -8 -8 -8 -8 -7 -7 -6 -6 -5 -5 -5 -4 -4 -4 -3 -3 -3 -3 -3 -3
-5 -6 -6 -7 -7 -7 -7 -6 -6 -6 -6 -5 -5 -5 -4 -4 -4 -4 -4 -4 -3 -3
-4 -4 -4 -5 -5 -6 -6 -6 -5 -5 -5 -6 -6 -5 -5 -4 -4 -4 -4 -4 -4 -4
-4 -3 -3 -3 -4 -4 -4 -4 -4 -4 -4 -4 -4 -4 -4 -4 -3 -4 -4 -5 -4 -4
-4 -3 -3 -2 -2 -3 -3 -3 -3 -3 -2 -1 -1 -2 -2 -2 -3 -3 -4 -4 -5 -5
-3 -3 -3 -2 -1 -2 -3 -3 -3 -3 -2 -0 0 -0 -1 -1 -2 -3 -4 -4 -4 -5